Weather History for Erie, PA

Change the Weather History Date:

Monday, October 7, 2013

  Actual Average Record
Temperature  
Mean Temperature 57 °F 56 °F  
Max Temperature 63 °F 64 °F 88 °F (1941)
Min Temperature 51 °F 48 °F 33 °F (1967)
Degree Days  
Heating Degree Days 8 10  
Month to date heating degree days 10 61  
Since 1 July heating degree days 142 185  
Cooling Degree Days 0 1  
Month to date cooling degree days 20 7  
Year to date cooling degree days 706 636  
Growing Degree Days 5 (Base 50)    
Moisture  
Dew Point 50 °F    
Average Humidity 72    
Maximum Humidity 93    
Minimum Humidity 51    
Precipitation  
Precipitation 0.92 in 0.14 in 1.72 in (1987)
Month to date precipitation 2.22 1.03  
Year to date precipitation 40.07 31.47  
Snow  
Snow 0.00 in 0.00 in - ()
Month to date snowfall 0.0 0.0  
Since 1 July snowfall 0.0 0.0  
Since 1 September snowfall 0.0 0.0  
Snow Depth 0.00 in    
Sea Level Pressure  
Sea Level Pressure 29.81 in    
Wind  
Wind Speed 12 mph (SW)    
Max Wind Speed 24 mph    
Max Gust Speed 35 mph    
Visibility 8 miles    
Events Rain    
T = Trace of Precipitation, MM = Missing Value Source: NWS Daily Summary

Daily Weather History Graph

Daily Weather History Graph

Search for Another Location

Airport:

Trip Planner

Search our weather history database for the weather conditions in past years. The results will help you decide how hot, cold, wet, or windy it might be!

Date:

Astronomy

Oct. 07, 2013 Rise Set
Actual Time 7:24 AM EDT 6:51 PM EDT
Civil Twilight 6:56 AM EDT 7:19 PM EDT
Nautical Twilight 6:24 AM EDT 7:51 PM EDT
Astronomical Twilight 5:51 AM EDT 8:24 PM EDT
Moon 10:15 AM EDT (10/7) 8:31 PM EDT (10/7)
Length of Visible Light 12h 23m
Length of Day
11h 27m
Waxing Crescent, 8% of the Moon is Illuminated
Oct 7
Waxing Crescent
Oct 11
First Quarter
Oct 18
Full
Oct 26
Last Quarter
Nov 3
New

Hourly Weather History & Observations

Time (EDT) Temp. Dew Point Humidity Pressure Visibility Wind Dir Wind Speed Gust Speed Precip Events Conditions
12:01 AM 66.2 °F 62.6 °F 88% 29.74 in 10.0 mi West 15.0 mph 29.9 mph 0.00 in Rain Light Rain
12:08 AM 64.4 °F 60.8 °F 88% 29.74 in 10.0 mi West 12.7 mph 23.0 mph 0.00 in Rain Light Rain
12:25 AM 64.4 °F 60.8 °F 88% 29.74 in 10.0 mi West 15.0 mph 26.5 mph 0.00 in   Overcast
12:51 AM 63.0 °F 57.9 °F 84% 29.73 in 10.0 mi West 11.5 mph 20.7 mph 0.00 in   Overcast
1:51 AM 60.1 °F 55.0 °F 83% 29.71 in 10.0 mi SSW 4.6 mph - N/A   Overcast
2:51 AM 59.0 °F 55.9 °F 90% 29.71 in 9.0 mi SW 6.9 mph - 0.04 in Rain Light Rain
3:46 AM 57.2 °F 55.4 °F 94% 29.72 in 2.5 mi SW 5.8 mph - 0.13 in Rain Heavy Rain
3:51 AM 57.9 °F 55.9 °F 93% 29.72 in 3.0 mi SW 8.1 mph - 0.15 in Rain Rain
4:05 AM 57.2 °F 55.4 °F 94% 29.73 in 2.0 mi SW 10.4 mph - 0.09 in Rain Heavy Rain
4:10 AM 57.2 °F 55.4 °F 94% 29.72 in 3.0 mi SW 10.4 mph - 0.11 in Rain Rain
4:51 AM 57.0 °F 54.0 °F 89% 29.72 in 4.0 mi SW 9.2 mph - 0.27 in Rain Rain
5:15 AM 57.2 °F 53.6 °F 88% 29.73 in 2.5 mi SW 4.6 mph - 0.07 in Rain Heavy Rain
5:24 AM 55.4 °F 53.6 °F 94% 29.71 in 2.0 mi Calm Calm - 0.12 in Rain Rain
5:33 AM 55.4 °F 53.6 °F 94% 29.71 in 4.0 mi Calm Calm - 0.13 in Rain Rain
5:47 AM 57.2 °F 53.6 °F 88% 29.72 in 4.0 mi WSW 4.6 mph - 0.17 in Rain Rain
5:51 AM 55.9 °F 54.0 °F 93% 29.71 in 3.0 mi WSW 5.8 mph - 0.17 in Rain Rain
6:12 AM 55.4 °F 53.6 °F 94% 29.74 in 4.0 mi WSW 8.1 mph - 0.08 in Rain Rain
6:26 AM 55.4 °F 53.6 °F 94% 29.72 in 4.0 mi SW 8.1 mph - 0.12 in Rain Rain
6:42 AM 55.4 °F 53.6 °F 94% 29.74 in 8.0 mi SW 10.4 mph - 0.14 in Rain Light Rain
6:51 AM 55.9 °F 53.1 °F 90% 29.73 in 9.0 mi SW 11.5 mph - 0.14 in Rain Light Rain
6:59 AM 55.4 °F 53.6 °F 94% 29.74 in 8.0 mi SW 12.7 mph 19.6 mph 0.01 in Rain Light Rain
7:21 AM 55.4 °F 51.8 °F 88% 29.74 in 10.0 mi SW 10.4 mph - 0.03 in Rain Light Rain
7:51 AM 55.0 °F 52.0 °F 89% 29.75 in 8.0 mi SW 12.7 mph 18.4 mph 0.05 in Rain Rain
8:03 AM 55.4 °F 50.0 °F 82% 29.76 in 10.0 mi SW 16.1 mph 21.9 mph 0.00 in Rain Light Rain
8:51 AM 54.0 °F 48.0 °F 80% 29.77 in 10.0 mi SW 18.4 mph 25.3 mph 0.00 in   Overcast
9:51 AM 52.0 °F 44.1 °F 74% 29.80 in 10.0 mi SW 17.3 mph 25.3 mph N/A   Scattered Clouds
10:51 AM 54.0 °F 42.1 °F 64% 29.80 in 10.0 mi SW 17.3 mph 23.0 mph N/A   Clear
11:51 AM 55.0 °F 41.0 °F 59% 29.81 in 10.0 mi WSW 16.1 mph 23.0 mph N/A   Overcast
12:51 PM 55.9 °F 39.9 °F 55% 29.82 in 10.0 mi WSW 17.3 mph 26.5 mph N/A   Mostly Cloudy
1:51 PM 57.0 °F 39.9 °F 53% 29.82 in 10.0 mi WSW 15.0 mph 25.3 mph N/A   Overcast
2:51 PM 55.9 °F 39.0 °F 53% 29.84 in 10.0 mi SW 18.4 mph 31.1 mph N/A   Overcast
3:51 PM 55.9 °F 39.9 °F 55% 29.86 in 10.0 mi SW 15.0 mph 24.2 mph N/A   Overcast
4:51 PM 57.0 °F 42.1 °F 57% 29.88 in 10.0 mi SW 16.1 mph 24.2 mph N/A   Overcast
5:51 PM 55.9 °F 42.1 °F 60% 29.91 in 10.0 mi SW 11.5 mph - N/A   Overcast
6:51 PM 53.1 °F 46.9 °F 80% 29.94 in 7.0 mi SW 16.1 mph 23.0 mph 0.01 in Rain Light Rain
7:04 PM 53.6 °F 46.4 °F 77% 29.94 in 10.0 mi SSW 11.5 mph - 0.00 in Rain Light Rain
7:51 PM 52.0 °F 48.0 °F 86% 29.98 in 7.0 mi South 8.1 mph - 0.08 in Rain Light Rain
8:51 PM 53.1 °F 48.0 °F 83% 30.01 in 10.0 mi SW 12.7 mph - 0.01 in Rain Light Rain
9:36 PM 53.6 °F 48.2 °F 82% 30.04 in 10.0 mi Calm Calm - 0.00 in   Overcast
9:51 PM 57.0 °F 44.1 °F 62% 30.05 in 10.0 mi WNW 8.1 mph - 0.00 in   Overcast
10:51 PM 51.1 °F 48.0 °F 89% 30.08 in 10.0 mi South 3.5 mph - N/A   Mostly Cloudy
11:51 PM 51.1 °F 48.0 °F 89% 30.11 in 10.0 mi SSW 4.6 mph - N/A   Scattered Clouds